Location: Gleizolles
(44.4833°N, 6.7667°E)
Time: 04:05:40
(UTC+00:00)

Vanguard 2 - Pass Details

Date: 25 June 2024
Orbit: 552 x 2913 km, 32.9° (Epoch: 17 July)

Event Time Altitude Azimuth Distance (km) Brightness Sun altitude
Exits shadow 02:21:01 - 187° (S) 4,611 11.0 -12.3°
Reaches altitude 10° 02:22:23 10° 182° (S) 4,432 10.9 -12.2°
Maximum altitude 02:31:25 23° 137° (SE) 4,155 11.2 -11.2°
Drops below altitude 10° 02:42:35 10° 95° (E) 5,623 12.5 -9.8°
Sets 02:48:38 0° 83° (E) 6,753 13.2 -9.1°
